St. Petersburg, FL

10:51 AM EDT on April 19, 2018 (GMT -0400)
Whitted

Weather History for KSPG - September, 2012

Change the Weather History Date:

Saturday, September 29, 2012

  Actual Average Record
Temperature  
Mean Temperature 84 °F -  
Max Temperature 90 °F 87 °F 92 °F (1972)
Min Temperature 78 °F 74 °F 64 °F (1962)
Cooling Degree Days 19    
Growing Degree Days 34 (Base 50)    
Moisture  
Dew Point 75 °F    
Average Humidity 81    
Maximum Humidity 90    
Minimum Humidity 59    
Precipitation  
Precipitation 0.00 in - - ()
Sea Level Pressure  
Sea Level Pressure 29.93 in    
Wind  
Wind Speed 6 mph (ENE)    
Max Wind Speed 12 mph    
Max Gust Speed -    
Visibility 10 miles    
Events      
Averages and records for this station are not official NWS values.
T = Trace of Precipitation, MM = Missing Value Source: NWS Daily Summary

Daily Weather History Graph

Daily Weather History Graph

Search for Another Location

Airport or City:

Trip Planner

Search our weather history database for the weather conditions in past years. The results will help you decide how hot, cold, wet, or windy it might be!

Date:

Astronomy

Sep. 29, 2012 Rise Set
Actual Time 7:22 AM EDT 7:18 PM EDT
Civil Twilight 6:59 AM EDT 7:41 PM EDT
Nautical Twilight 6:32 AM EDT 8:08 PM EDT
Astronomical Twilight 6:04 AM EDT 8:35 PM EDT
Moon 6:54 PM EDT (9/29) 6:50 AM EDT (9/29)
Length of Visible Light 12h 42m
Length of Day
11h 55m
Full, 100% of the Moon is Illuminated
Sep 29
Full
Sep 29
Full
Oct 8
Last Quarter
Oct 15
New
Oct 21
First Quarter

Hourly Weather History & Observations

Time (EDT) Temp. Heat Index Dew Point Humidity Pressure Visibility Wind Dir Wind Speed Gust Speed Precip Events Conditions
12:53 AM 80.1 °F 85.4 °F 75.9 °F 87% 29.99 in 10.0 mi East 6.9 mph - N/A   Clear
1:53 AM 80.1 °F 85.4 °F 75.9 °F 87% 29.97 in 10.0 mi ENE 5.8 mph - N/A   Clear
2:53 AM 80.1 °F 85.4 °F 75.9 °F 87% 29.95 in 10.0 mi East 5.8 mph - N/A   Clear
3:53 AM 79.0 °F - 75.9 °F 90% 29.95 in 10.0 mi East 5.8 mph - N/A   Clear
4:53 AM 79.0 °F - 75.9 °F 90% 29.93 in 10.0 mi ENE 5.8 mph - N/A   Clear
5:43 AM 78.8 °F - 75.2 °F 89% 29.93 in 10.0 mi East 6.9 mph - N/A   Partly Cloudy
5:53 AM 79.0 °F - 75.9 °F 90% 29.94 in 10.0 mi East 6.9 mph - N/A   Partly Cloudy
6:53 AM 79.0 °F - 75.0 °F 88% 29.95 in 10.0 mi East 8.1 mph - N/A   Clear
7:27 AM 78.8 °F - 75.2 °F 89% 29.96 in 10.0 mi East 6.9 mph - N/A   Partly Cloudy
7:53 AM 79.0 °F - 75.9 °F 90% 29.95 in 10.0 mi ENE 9.2 mph - N/A   Partly Cloudy
8:53 AM 79.0 °F - 75.9 °F 90% 29.97 in 10.0 mi East 11.5 mph - N/A   Scattered Clouds
9:06 AM 78.8 °F - 75.2 °F 89% 29.98 in 10.0 mi East 10.4 mph - N/A   Mostly Cloudy
9:42 AM 80.6 °F 86.2 °F 75.2 °F 84% 29.99 in 10.0 mi ESE 9.2 mph - N/A   Scattered Clouds
9:53 AM 80.1 °F 85.4 °F 75.9 °F 87% 29.99 in 10.0 mi ESE 9.2 mph - N/A   Scattered Clouds
10:53 AM 82.0 °F 89.4 °F 75.9 °F 82% 29.98 in 10.0 mi East 5.8 mph - N/A   Clear
11:53 AM 82.9 °F 91.8 °F 77.0 °F 82% 29.97 in 10.0 mi East 4.6 mph - N/A   Clear
12:53 PM 84.9 °F 94.1 °F 75.9 °F 74% 29.95 in 10.0 mi ENE 3.5 mph - N/A   Clear
1:53 PM 87.1 °F 95.4 °F 73.9 °F 65% 29.92 in 10.0 mi ENE 3.5 mph - N/A   Clear
2:53 PM 89.1 °F 97.0 °F 73.0 °F 59% 29.89 in 10.0 mi Calm Calm - N/A   Clear
3:53 PM 90.0 °F 99.0 °F 73.9 °F 59% 29.86 in 10.0 mi Calm Calm - N/A   Clear
4:53 PM 84.9 °F 94.1 °F 75.9 °F 74% 29.85 in 10.0 mi West 9.2 mph - N/A   Mostly Cloudy
5:53 PM 84.0 °F 91.9 °F 75.0 °F 74% 29.86 in 10.0 mi WNW 8.1 mph - N/A   Clear
6:53 PM 82.9 °F 89.4 °F 73.9 °F 74% 29.86 in 10.0 mi West 8.1 mph - N/A   Clear
7:53 PM 82.9 °F 90.2 °F 75.0 °F 77% 29.86 in 10.0 mi NW 6.9 mph - N/A   Clear
8:53 PM 82.0 °F 88.6 °F 75.0 °F 79% 29.87 in 10.0 mi NW 4.6 mph - N/A   Clear
9:53 PM 82.0 °F 88.6 °F 75.0 °F 79% 29.88 in 10.0 mi North 3.5 mph - N/A   Clear
10:53 PM 81.0 °F 87.3 °F 75.9 °F 85% 29.90 in 10.0 mi Calm Calm - N/A   Clear
11:53 PM 82.0 °F 89.4 °F 75.9 °F 82% 29.91 in 10.0 mi NNE 3.5 mph - N/A   Scattered Clouds